HB9BHU-8 Weather Reports


time (UTC)temp
F
wind
direction
speed
knots
gust
knots
rain 1hr
in
rain 24hr
in
rain mn
in
humidity
%
barometer
mb
20260502231547 61 124 0.9 4.3 0.00 0.00 0.00 71 1018.7
20260502230045 61 110 2.6 4.3 0.00 0.00 0.00 71 1018.8
20260502224542 61 110 2.6 4.3 0.00 0.00 0.00 70 1018.8
20260502223040 62 117 1.7 3.5 0.00 0.00 0.00 68 1018.8
20260502221538 63 127 4.3 6.1 0.00 0.00 0.00 69 1018.8
20260502220037 63 113 0.9 3.5 0.00 0.00 0.00 66 1018.8
20260502214536 64 115 0.0 2.6 0.00 0.00 0.00 64 1018.7
20260502213041 65 111 0.0 1.7 0.00 0.00 0.00 63 1018.5
20260502211535 65 114 0.0 1.7 0.00 0.00 0.00 62 1018.5
20260502210032 65 117 1.7 4.3 0.00 0.00 0.00 61 1018.5
20260502204532 66 113 2.6 3.5 0.00 0.00 0.00 59 1018.5
20260502203036 67 113 0.9 2.6 0.00 0.00 0.00 57 1018.5
20260502201534 68 113 0.0 0.0 0.00 0.00 0.00 55 1018.5
20260502200031 68 113 0.0 0.9 0.00 0.00 0.00 55 1018.5
20260502194533 68 117 2.6 6.1 0.00 0.00 0.00 54 1018.5
20260502193030 70 116 0.9 3.5 0.00 0.00 0.00 51 1018.5
20260502191532 69 109 0.0 1.7 0.00 0.00 0.00 52 1018.4
20260502190029 70 113 0.9 3.5 0.00 0.00 0.00 53 1018.3
20260502184528 70 121 0.9 2.6 0.00 0.00 0.00 53 1018.2
20260502183028 71 117 0.0 3.5 0.00 0.00 0.00 53 1018.0
20260502181532 72 107 0.0 2.6 0.00 0.00 0.00 51 1018.1
20260502163023 78 76 0.9 3.5 0.00 0.00 0.00 39 1018.2
20260502161521 79 61 0.9 3.5 0.00 0.00 0.00 38 1018.4
20260502151516 78 316 0.9 5.2 0.00 0.00 0.00 39 1018.9
20260502123051 76 267 2.6 8.7 0.00 0.00 0.00 45 1021.3
20260502121549 76 295 4.3 7.0 0.00 0.00 0.00 45 1021.5
20260502114549 76 145 0.9 4.3 0.00 0.00 0.00 47 1022.0
20260502113041 75 183 0.0 2.6 0.00 0.00 0.00 47 1022.3
20260502111539 73 234 0.9 7.0 0.00 0.00 0.00 49 1022.6
20260502110038 74 185 0.0 5.2 0.00 0.00 0.00 49 1022.9
20260502104535 73 190 0.0 3.5 0.00 0.00 0.00 52 1023.1
20260502103030 72 158 0.0 1.7 0.00 0.00 0.00 53 1023.3
20260502101534 70 281 0.9 3.5 0.00 0.00 0.00 55 1023.6
20260502091512 65 56 1.7 5.2 0.00 0.00 0.00 60 1024.3
20260502080105 59 329 0.0 0.9 0.00 0.00 0.00 67 1025.0
20260502070045 55 119 0.0 0.0 0.00 0.00 0.00 73 1025.3
20260502064555 53 119 0.0 0.0 0.00 0.00 0.00 77 1025.4
20260502063041 52 119 0.0 0.0 0.00 0.00 0.00 79 1025.4
20260502061541 51 119 0.0 0.0 0.00 0.00 0.00 79 1025.4
20260502060040 50 119 0.0 0.0 0.00 0.00 0.00 80 1025.4
20260502054543 50 119 0.0 0.0 0.00 0.00 0.00 82 1025.4
20260502053037 49 119 0.0 0.0 0.00 0.00 0.00 82 1025.4
20260502051538 49 119 0.0 0.0 0.00 0.00 0.00 82 1025.4
20260502050034 48 119 0.0 0.0 0.00 0.00 0.00 82 1025.3
20260502044534 48 119 0.0 0.0 0.00 0.00 0.00 81 1025.3
20260502043024 49 119 0.0 2.6 0.00 0.00 0.00 80 1025.2
20260502041521 49 120 1.7 3.5 0.00 0.00 0.00 80 1025.3
20260502040034 49 122 1.7 4.3 0.00 0.00 0.00 80 1025.2
20260502034525 49 124 0.0 4.3 0.00 0.00 0.00 80 1025.2
20260502033019 49 126 1.7 4.3 0.00 0.00 0.00 79 1025.3
20260502031515 49 122 0.0 0.0 0.00 0.00 0.00 78 1025.2
20260502030013 50 121 1.7 3.5 0.00 0.00 0.00 74 1025.1
20260502024516 50 105 0.0 2.6 0.00 0.00 0.00 74 1025.2
20260502023012 50 106 0.9 3.5 0.00 0.00 0.00 72 1025.3
20260502021509 50 105 0.0 0.0 0.00 0.00 0.00 72 1025.3
20260502020009 50 105 0.0 3.5 0.00 0.00 0.00 73 1025.2
20260502014519 51 98 0.0 1.7 0.00 0.00 0.00 70 1025.2
20260502013005 51 96 0.9 4.3 0.00 0.00 0.00 71 1025.3
20260502011505 51 123 0.0 0.0 0.00 0.00 0.00 75 1025.3
20260502010002 51 123 0.9 1.7 0.00 0.00 0.00 75 1025.3
20260502004606 52 108 0.0 0.0 0.00 0.00 0.00 73 1025.2
20260502003131 53 107 0.0 0.0 0.00 0.00 0.00 67 1025.2
20260502001631 54 107 0.0 0.0 0.00 0.00 0.00 66 1025.2
20260502000051 54 107 0.0 0.0 0.00 0.00 0.00 65 1025.3
20260501234549 55 107 0.0 0.0 0.00 0.00 0.00 65 1025.4
20260501233048 55 107 0.0 0.0 0.00 0.00 0.00 64 1025.3